Regional Weather Roundup
Issued by NWS

Home | Current Version | Previous Version | Graphics & Text | Print | Product List | Glossary On
Versions: 1 2 3 4 5 6 7 8 9 10 11 12 13 14 15 16 17 18 19 20 21 22 23 24 25 26 27 28 29 30 31 32 33 34 35 36 37 38 39 40 41 42 43 44 45 46 47 48 49 50
000
ASUS45 KPSR 261710
RWRAZ

ARIZONA HOURLY REGIONAL WEATHER ROUNDUP
NATIONAL WEATHER SERVICE PHOENIX AZ
1000 AM MST THU APR 26 2018

NOTE: FAIR INDICATES FEW OR NO CLOUDS BELOW 12,000 FEET WITH NO
SIGNIFICANT WEATHER AND/OR OBSTRUCTIONS TO VISIBILITY.

AZZ001>003-036-261800-
NORTHWEST ARIZONA

CITY           SKY/WX    TMP DP  RH WIND       PRES   REMARKS
BULLHEAD CITY  SUNNY     86  21   9 CALM      29.87S
KINGMAN        SUNNY     85  23  10 NW5       30.02S
$$

AZZ004>008-015-016-018-261800-
NORTH CENTRAL ARIZONA

CITY           SKY/WX    TMP DP  RH WIND       PRES   REMARKS
GRAND CANYON   SUNNY     71  18  13 NE16      30.22R
WILLIAMS       SUNNY     70  16  12 VRB7      30.18S
PRESCOTT       SUNNY     75  21  13 VRB5      30.11S
FLAGSTAFF      SUNNY     69  22  16 NE9G16    30.22R
PAYSON         SUNNY     75  19  12 CALM      30.11R
PAGE           SUNNY     72  19  13 CALM      30.12R
$$

AZZ009>014-017-261800-
NORTHEAST ARIZONA

CITY           SKY/WX    TMP DP  RH WIND       PRES   REMARKS
WINSLOW        SUNNY     72   9   8 VRB5      30.13S
SAINT JOHNS    SUNNY     71  10   9 CALM      30.14S
WINDOW ROCK    SUNNY     71  12  10 N14G21    30.19S
SHOW LOW       SUNNY     72  14  11 N8G15     30.19S
$$

AZZ540-542>544-546-548-261800-
GREATER PHOENIX AREA

CITY           SKY/WX    TMP DP  RH WIND       PRES   REMARKS
PHOENIX        PTSUNNY   82  32  16 NE6       29.89R
BUCKEYE        PTSUNNY   82  37  20 SW7       29.90S
GLENDALE       PTSUNNY   84  34  16 S7        29.91S
DEER VALLEY    PTSUNNY   83  29  14 S8        29.91R
SCOTTSDALE     PTSUNNY   83  33  16 S3        29.92S
MESA-FALCON    PTSUNNY   82  30  15 S8        29.92R
MESA-GATEWAY   MOSUNNY   82  32  16 MISG      29.93R
CHANDLER       PTSUNNY   82  32  16 S5        29.90S
$$

AZZ539-553-261800-
SOUTHWEST MARICOPA COUNTY AND PINAL COUNTY

CITY           SKY/WX    TMP DP  RH WIND       PRES   REMARKS
CASA GRANDE    PTSUNNY   85  32  15 SW8       29.92F
$$

AZZ503-504-507>509-261800-
SOUTHEAST ARIZONA

CITY           SKY/WX    TMP DP  RH WIND       PRES   REMARKS
TUCSON         PTSUNNY   81  28  14 SW3       30.00S
NOGALES        PTSUNNY   78  33  19 VRB3      30.07S
DOUGLAS        MOSUNNY   78  22  12 VRB3      30.07S
SAFFORD        SUNNY     81  21  11 VRB3      29.99S
$$

AZZ532-261800-
SOUTHWEST ARIZONA

CITY           SKY/WX    TMP DP  RH WIND       PRES   REMARKS
YUMA           NOT AVBL
$$

CAZ041-043-047-048-061-525>527-560>570-261800-
SOUTHERN CALIFORNIA

CITY           SKY/WX    TMP DP  RH WIND       PRES   REMARKS
DOWNTOWN L.A.  MOSUNNY   63  52  67 CALM      30.04R
L.A. AIRPORT   PTSUNNY   60  50  69 W8        30.05S
SAN DIEGO      PTSUNNY   62  51  67 SW3       30.06
BURBANK        SUNNY     60  52  74 SE6       30.03S
ONTARIO        MOSUNNY   62  49  62 VRB5      30.03F HAZE
RIVERSIDE      SUNNY     61  50  67 VRB5      30.03S
PALM SPRINGS   SUNNY     89  31  12 NW8       29.87S
EL CENTRO NAS  PTSUNNY   85  40  20 E7        29.86S
IMPERIAL       MOSUNNY   85  30  13 S5        29.85R
BLYTHE         MOSUNNY   86  35  16 S3        29.86R
NEEDLES        MOSUNNY   88  20   8 NE6       29.88S
$$

NVZ020-UTZ003-261800-
SOUTHERN NEVADA-UTAH

CITY           SKY/WX    TMP DP  RH WIND       PRES   REMARKS
LAS VEGAS      MOSUNNY   84  25  11 N9        29.96S
SALT LAKE CITY SUNNY     66  33  29 W6        30.19R
$$

NMZ009-TXZ055-261800-
NEW MEXICO-WEST TEXAS

CITY           SKY/WX    TMP DP  RH WIND       PRES   REMARKS
ALBUQUERQUE    MOSUNNY   68  15  13 NW6       30.11F
EL PASO        MOSUNNY   68  38  33 VRB3      30.06F
$$


........................KEY........................
SKY/WX - SKY CONDITION/WEATHER
TMP    - TEMPERATURE IN FAHRENHEIT
DP     - DEW POINT IN FAHRENHEIT
RH     - RELATIVE HUMIDITY IN PERCENT
WIND   - DIRECTION AND SPEED IN MILES PER HOUR (MPH)
VRB    - VARIABLE WIND DIRECTION
PRES   - MEAN SEA LEVEL PRESSURE IN INCHES OF MERCURY
         F - FALLING PRESSURE   R - RISING PRESSURE
         S - STEADY PRESSURE
VSB    - VISIBILITY IN MILES
HX     - HEAT INDEX IN FAHRENHEIT
WCI    - WIND CHILL INDEX IN FAHRENHEIT
TC     - TEMPERATURE IN CELSIUS WHICH IS ALSO KNOWN AS
         TEMPERATURE IN CENTIGRADE
AFB    - AIR FORCE BASE
         LUKE AFB IS LUKE AIR FORCE BASE
         DAVIS-MONTHAN IS DAVIS-MONTHAN AIR FORCE BASE
NAS    - NAVAL AIR STATION
         EL CENTRO NAS IS EL CENTRO NAVAL AIR STATION
N/A    - NOT AVAILABLE




USA.gov is the U.S. government's official web portal to all federal, state and local government web resources and services.